| time (UTC) | temp F | wind direction | speed knots | gust knots | rain 1hr in | rain 24hr in | rain mn in | humidity % | barometer mb |
| 20260507183047 | 70 | 125 | 1.7 | 6.1 | 0.00 | 0.00 | 0.00 | 19 | 1020.2 |
| 20260507182547 | 69 | 329 | 2.6 | 5.2 | 0.00 | 0.00 | 0.00 | 20 | 1020.1 |
| 20260507181009 | 70 | 346 | 4.3 | 9.6 | 0.00 | 0.00 | 0.00 | 20 | 1020.2 |
| 20260507180547 | 70 | 293 | 3.5 | 7.8 | 0.00 | 0.00 | 0.00 | 21 | 1020.2 |
| 20260507180047 | 70 | 325 | 6.1 | 8.7 | 0.00 | 0.00 | 0.00 | 21 | 1020.2 |
| 20260507175547 | 70 | 47 | 4.3 | 9.6 | 0.00 | 0.00 | 0.00 | 21 | 1020.1 |
| 20260507175046 | 68 | 72 | 5.2 | 10.4 | 0.00 | 0.00 | 0.00 | 21 | 1020.2 |
| 20260507174547 | 68 | 31 | 7.0 | 11.3 | 0.00 | 0.00 | 0.00 | 21 | 1020.2 |
| 20260507174009 | 68 | 321 | 7.0 | 8.7 | 0.00 | 0.00 | 0.00 | 22 | 1020.4 |
| 20260507173546 | 68 | 168 | 0.0 | 5.2 | 0.00 | 0.00 | 0.00 | 22 | 1020.6 |
| 20260507173047 | 69 | 36 | 5.2 | 8.7 | 0.00 | 0.00 | 0.00 | 20 | 1020.5 |
| 20260507172509 | 67 | 2 | 4.3 | 5.2 | 0.00 | 0.00 | 0.00 | 22 | 1020.5 |
| 20260507172009 | 67 | 354 | 6.1 | 8.7 | 0.00 | 0.00 | 0.00 | 22 | 1020.4 |
| 20260507171547 | 67 | 71 | 5.2 | 7.0 | 0.00 | 0.00 | 0.00 | 22 | 1020.5 |
| 20260507165546 | 66 | 46 | 3.5 | 11.3 | 0.00 | 0.00 | 0.00 | 23 | 1020.5 |
| 20260507165009 | 66 | 63 | 1.7 | 5.2 | 0.00 | 0.00 | 0.00 | 23 | 1020.5 |
| 20260507164547 | 67 | 64 | 7.8 | 9.6 | 0.00 | 0.00 | 0.00 | 23 | 1020.4 |
| 20260507164047 | 66 | 10 | 6.1 | 7.8 | 0.00 | 0.00 | 0.00 | 22 | 1020.7 |
| 20260507163547 | 66 | 59 | 4.3 | 10.4 | 0.00 | 0.00 | 0.00 | 23 | 1020.5 |
| 20260507163010 | 66 | 40 | 2.6 | 7.8 | 0.00 | 0.00 | 0.00 | 23 | 1020.5 |
| 20260507162547 | 66 | 357 | 3.5 | 6.1 | 0.00 | 0.00 | 0.00 | 23 | 1020.7 |
| 20260507162047 | 67 | 41 | 2.6 | 3.5 | 0.00 | 0.00 | 0.00 | 23 | 1020.7 |
| 20260507161546 | 65 | 4 | 2.6 | 6.1 | 0.00 | 0.00 | 0.00 | 22 | 1020.8 |
| 20260507161046 | 64 | 75 | 1.7 | 9.6 | 0.00 | 0.00 | 0.00 | 23 | 1020.5 |
| 20260507160547 | 65 | 52 | 5.2 | 7.0 | 0.00 | 0.00 | 0.00 | 23 | 1020.7 |
| 20260507160009 | 66 | 71 | 5.2 | 6.1 | 0.00 | 0.00 | 0.00 | 22 | 1020.7 |
| 20260507155546 | 64 | 93 | 1.7 | 7.8 | 0.00 | 0.00 | 0.00 | 23 | 1020.8 |
| 20260507155047 | 64 | 86 | 2.6 | 6.1 | 0.00 | 0.00 | 0.00 | 23 | 1020.8 |
| 20260507154510 | 64 | 86 | 4.3 | 7.0 | 0.00 | 0.00 | 0.00 | 23 | 1020.9 |
| 20260507154010 | 64 | 109 | 6.1 | 8.7 | 0.00 | 0.00 | 0.00 | 23 | 1020.9 |
| 20260507153547 | 63 | 125 | 1.7 | 6.1 | 0.00 | 0.00 | 0.00 | 24 | 1020.9 |
| 20260507153009 | 64 | 30 | 7.8 | 8.7 | 0.00 | 0.00 | 0.00 | 23 | 1020.9 |
| 20260507152546 | 63 | 70 | 3.5 | 5.2 | 0.00 | 0.00 | 0.00 | 24 | 1020.8 |
| 20260507152046 | 62 | 84 | 4.3 | 7.8 | 0.00 | 0.00 | 0.00 | 24 | 1020.8 |
| 20260507151546 | 61 | 64 | 2.6 | 7.0 | 0.00 | 0.00 | 0.00 | 24 | 1020.7 |
| 20260507151009 | 61 | 100 | 6.1 | 9.6 | 0.00 | 0.00 | 0.00 | 24 | 1020.9 |
| 20260507150546 | 61 | 72 | 4.3 | 7.0 | 0.00 | 0.00 | 0.00 | 25 | 1020.8 |
| 20260507150046 | 60 | 66 | 5.2 | 9.6 | 0.00 | 0.00 | 0.00 | 25 | 1021.1 |
| 20260507145547 | 61 | 107 | 4.3 | 7.8 | 0.00 | 0.00 | 0.00 | 24 | 1020.9 |
| 20260507145009 | 60 | 53 | 2.6 | 7.8 | 0.00 | 0.00 | 0.00 | 25 | 1020.7 |
| 20260507144547 | 60 | 115 | 3.5 | 7.0 | 0.00 | 0.00 | 0.00 | 24 | 1021.1 |
| 20260507144047 | 61 | 77 | 3.5 | 5.2 | 0.00 | 0.00 | 0.00 | 25 | 1021.1 |
| 20260507143526 | 59 | 105 | 5.2 | 6.1 | 0.00 | 0.00 | 0.00 | 25 | 1021.0 |
| 20260507143046 | 60 | 89 | 2.6 | 3.5 | 0.00 | 0.00 | 0.00 | 26 | 1021.3 |
| 20260507142547 | 58 | 77 | 3.5 | 5.2 | 0.00 | 0.00 | 0.00 | 26 | 1020.8 |
| 20260507142010 | 58 | 96 | 4.3 | 7.8 | 0.00 | 0.00 | 0.00 | 26 | 1020.8 |
| 20260507141547 | 58 | 105 | 2.6 | 3.5 | 0.00 | 0.00 | 0.00 | 27 | 1020.8 |
| 20260507141047 | 58 | 112 | 3.5 | 5.2 | 0.00 | 0.00 | 0.00 | 26 | 1021.0 |
| 20260507140510 | 58 | 119 | 0.0 | 3.5 | 0.00 | 0.00 | 0.00 | 27 | 1020.9 |
| 20260507140047 | 58 | 114 | 3.5 | 4.3 | 0.00 | 0.00 | 0.00 | 26 | 1020.9 |
| 20260507135547 | 58 | 88 | 2.6 | 3.5 | 0.00 | 0.00 | 0.00 | 27 | 1020.8 |
| 20260507135009 | 58 | 65 | 1.7 | 4.3 | 0.00 | 0.00 | 0.00 | 28 | 1020.8 |
| 20260507134547 | 58 | 100 | 1.7 | 3.5 | 0.00 | 0.00 | 0.00 | 29 | 1020.8 |
| 20260507134047 | 56 | 124 | 2.6 | 3.5 | 0.00 | 0.00 | 0.00 | 31 | 1020.6 |
| 20260507131047 | 49 | 12 | 0.0 | 1.7 | 0.00 | 0.00 | 0.00 | 43 | 1020.5 |
| 20260507130547 | 49 | 261 | 2.6 | 3.5 | 0.00 | 0.00 | 0.00 | 46 | 1020.4 |
| 20260507130047 | 49 | 19 | 0.0 | 1.7 | 0.00 | 0.00 | 0.00 | 45 | 1020.5 |
| 20260507125547 | 48 | 293 | 1.7 | 2.6 | 0.00 | 0.00 | 0.00 | 49 | 1020.4 |
| 20260507125047 | 46 | 260 | 2.6 | 3.5 | 0.00 | 0.00 | 0.00 | 54 | 1020.4 |
| 20260507124547 | 46 | 260 | 1.7 | 2.6 | 0.00 | 0.00 | 0.00 | 54 | 1020.4 |
| 20260507124010 | 44 | 269 | 2.6 | 2.6 | 0.00 | 0.00 | 0.00 | 58 | 1020.5 |
| 20260507123547 | 42 | 258 | 1.7 | 4.3 | 0.00 | 0.00 | 0.00 | 61 | 1020.4 |
| 20260507123047 | 41 | 272 | 3.5 | 4.3 | 0.00 | 0.00 | 0.00 | 62 | 1020.3 |
| 20260507122509 | 42 | 180 | 1.7 | 3.5 | 0.00 | 0.00 | 0.00 | 61 | 1020.3 |
| 20260507122009 | 42 | 265 | 3.5 | 3.5 | 0.00 | 0.00 | 0.00 | 61 | 1020.2 |
| 20260507121547 | 43 | 259 | 3.5 | 4.3 | 0.00 | 0.00 | 0.00 | 60 | 1020.4 |
| 20260507121009 | 43 | 259 | 2.6 | 4.3 | 0.00 | 0.00 | 0.00 | 60 | 1020.5 |
| 20260507120546 | 43 | 265 | 2.6 | 3.5 | 0.00 | 0.00 | 0.00 | 60 | 1020.2 |
| 20260507120047 | 43 | 264 | 3.5 | 4.3 | 0.00 | 0.00 | 0.00 | 59 | 1020.4 |
| 20260507115547 | 43 | 262 | 2.6 | 3.5 | 0.00 | 0.00 | 0.00 | 59 | 1020.5 |
| 20260507115010 | 44 | 264 | 2.6 | 3.5 | 0.00 | 0.00 | 0.00 | 58 | 1020.4 |
| 20260507114547 | 44 | 266 | 4.3 | 4.3 | 0.00 | 0.00 | 0.00 | 58 | 1020.6 |
| 20260507114047 | 44 | 261 | 3.5 | 3.5 | 0.00 | 0.00 | 0.00 | 58 | 1020.6 |
| 20260507113547 | 43 | 260 | 4.3 | 4.3 | 0.00 | 0.00 | 0.00 | 59 | 1020.5 |
| 20260507113009 | 42 | 283 | 2.6 | 4.3 | 0.00 | 0.00 | 0.00 | 59 | 1020.5 |
| 20260507112547 | 43 | 276 | 2.6 | 4.3 | 0.00 | 0.00 | 0.00 | 59 | 1020.6 |
| 20260507112047 | 43 | 253 | 4.3 | 4.3 | 0.00 | 0.00 | 0.00 | 58 | 1020.7 |
| 20260507111547 | 44 | 251 | 4.3 | 5.2 | 0.00 | 0.00 | 0.00 | 57 | 1020.6 |
| 20260507111047 | 45 | 258 | 3.5 | 4.3 | 0.00 | 0.00 | 0.00 | 55 | 1020.5 |
| 20260507110547 | 45 | 263 | 3.5 | 5.2 | 0.00 | 0.00 | 0.00 | 56 | 1020.6 |
| 20260507110047 | 44 | 271 | 4.3 | 5.2 | 0.00 | 0.00 | 0.00 | 57 | 1020.6 |
| 20260507105547 | 44 | 260 | 3.5 | 4.3 | 0.00 | 0.00 | 0.00 | 57 | 1020.6 |
| 20260507105047 | 45 | 263 | 2.6 | 4.3 | 0.00 | 0.00 | 0.00 | 55 | 1020.5 |
| 20260507104509 | 45 | 269 | 3.5 | 4.3 | 0.00 | 0.00 | 0.00 | 55 | 1020.5 |
| 20260507104009 | 45 | 265 | 3.5 | 4.3 | 0.00 | 0.00 | 0.00 | 55 | 1020.5 |
| 20260507103547 | 44 | 271 | 3.5 | 4.3 | 0.00 | 0.00 | 0.00 | 56 | 1020.2 |
| 20260507103009 | 45 | 276 | 2.6 | 4.3 | 0.00 | 0.00 | 0.00 | 56 | 1020.4 |
| 20260507102547 | 45 | 266 | 3.5 | 3.5 | 0.00 | 0.00 | 0.00 | 55 | 1020.4 |
| 20260507102047 | 45 | 256 | 3.5 | 3.5 | 0.00 | 0.00 | 0.00 | 55 | 1020.3 |
| 20260507100046 | 44 | 272 | 2.6 | 4.3 | 0.00 | 0.00 | 0.00 | 57 | 1020.5 |
| 20260507095509 | 45 | 304 | 3.5 | 5.2 | 0.00 | 0.00 | 0.00 | 56 | 1020.4 |
| 20260507092009 | 46 | 325 | 2.6 | 4.3 | 0.00 | 0.00 | 0.00 | 54 | 1020.2 |
| 20260507091547 | 46 | 300 | 2.6 | 3.5 | 0.00 | 0.00 | 0.00 | 54 | 1020.4 |
| 20260507091047 | 46 | 318 | 2.6 | 4.3 | 0.00 | 0.00 | 0.00 | 53 | 1020.5 |
| 20260507090509 | 47 | 290 | 2.6 | 4.3 | 0.00 | 0.00 | 0.00 | 53 | 1020.3 |
| 20260507090009 | 47 | 266 | 5.2 | 5.2 | 0.00 | 0.00 | 0.00 | 53 | 1020.3 |
| 20260507085547 | 47 | 273 | 4.3 | 4.3 | 0.00 | 0.00 | 0.00 | 53 | 1020.2 |
| 20260507083546 | 49 | 240 | 1.7 | 1.7 | 0.00 | 0.00 | 0.00 | 50 | 1020.6 |
| 20260507083009 | 49 | 113 | 0.0 | 1.7 | 0.00 | 0.00 | 0.00 | 49 | 1020.2 |
| 20260507082547 | 50 | 112 | 2.6 | 2.6 | 0.00 | 0.00 | 0.00 | 47 | 1020.6 |
| 20260507082046 | 51 | 72 | 1.7 | 2.6 | 0.00 | 0.00 | 0.00 | 47 | 1020.5 |
| 20260507081510 | 52 | 232 | 1.7 | 2.6 | 0.00 | 0.00 | 0.00 | 45 | 1020.3 |
| 20260507081047 | 52 | 124 | 0.0 | 2.6 | 0.00 | 0.00 | 0.00 | 45 | 1020.4 |
| 20260507080546 | 52 | 326 | 0.0 | 2.6 | 0.00 | 0.00 | 0.00 | 45 | 1020.5 |
| 20260507080010 | 53 | 235 | 1.7 | 5.2 | 0.00 | 0.00 | 0.00 | 44 | 1020.3 |
| 20260507075547 | 53 | 250 | 5.2 | 7.8 | 0.00 | 0.00 | 0.00 | 43 | 1020.3 |
| 20260507075046 | 53 | 268 | 5.2 | 7.0 | 0.00 | 0.00 | 0.00 | 44 | 1020.2 |
| 20260507074547 | 52 | 275 | 5.2 | 5.2 | 0.00 | 0.00 | 0.00 | 45 | 1020.2 |
| 20260507074010 | 52 | 282 | 0.0 | 3.5 | 0.00 | 0.00 | 0.00 | 45 | 1020.2 |
| 20260507073546 | 50 | 276 | 2.6 | 2.6 | 0.00 | 0.00 | 0.00 | 47 | 1020.3 |
| 20260507073047 | 50 | 258 | 1.7 | 2.6 | 0.00 | 0.00 | 0.00 | 48 | 1020.3 |
| 20260507072547 | 50 | 37 | 3.5 | 3.5 | 0.00 | 0.00 | 0.00 | 48 | 1020.3 |
| 20260507072010 | 50 | 79 | 2.6 | 3.5 | 0.00 | 0.00 | 0.00 | 47 | 1020.4 |
| 20260507071547 | 51 | 121 | 2.6 | 2.6 | 0.00 | 0.00 | 0.00 | 47 | 1020.2 |
| 20260507071047 | 51 | 93 | 1.7 | 3.5 | 0.00 | 0.00 | 0.00 | 46 | 1020.3 |
| 20260507070513 | 52 | 107 | 1.7 | 2.6 | 0.00 | 0.00 | 0.00 | 45 | 1020.3 |
| 20260507070008 | 53 | 228 | 3.5 | 5.2 | 0.00 | 0.00 | 0.00 | 44 | 1020.2 |
| 20260507065547 | 53 | 213 | 1.7 | 5.2 | 0.00 | 0.00 | 0.00 | 43 | 1020.3 |
| 20260507065047 | 53 | 263 | 4.3 | 5.2 | 0.00 | 0.00 | 0.00 | 43 | 1020.3 |
| 20260507064546 | 54 | 255 | 4.3 | 7.8 | 0.00 | 0.00 | 0.00 | 43 | 1020.4 |
| 20260507064046 | 54 | 282 | 2.6 | 5.2 | 0.00 | 0.00 | 0.00 | 43 | 1020.4 |
| 20260507063547 | 53 | 280 | 4.3 | 4.3 | 0.00 | 0.00 | 0.00 | 43 | 1020.4 |
| 20260507063010 | 52 | 236 | 4.3 | 6.1 | 0.00 | 0.00 | 0.00 | 44 | 1020.3 |
| 20260507062547 | 52 | 137 | 2.6 | 3.5 | 0.00 | 0.00 | 0.00 | 44 | 1020.3 |
| 20260507062047 | 52 | 204 | 0.0 | 1.7 | 0.00 | 0.00 | 0.00 | 44 | 1020.2 |
| 20260507060046 | 54 | 194 | 2.6 | 7.0 | 0.00 | 0.00 | 0.00 | 41 | 1020.1 |
| 20260507055546 | 54 | 201 | 2.6 | 3.5 | 0.00 | 0.00 | 0.00 | 42 | 1020.1 |
| 20260507055047 | 54 | 170 | 2.6 | 4.3 | 0.00 | 0.00 | 0.00 | 42 | 1020.2 |
| 20260507054510 | 54 | 185 | 3.5 | 4.3 | 0.00 | 0.00 | 0.00 | 41 | 1020.1 |
| 20260507054010 | 54 | 213 | 4.3 | 5.2 | 0.00 | 0.00 | 0.00 | 41 | 1020.2 |
| 20260507053547 | 55 | 197 | 2.6 | 5.2 | 0.00 | 0.00 | 0.00 | 41 | 1020.2 |
| 20260507053010 | 55 | 258 | 2.6 | 8.7 | 0.00 | 0.00 | 0.00 | 40 | 1020.0 |
| 20260507052546 | 55 | 241 | 4.3 | 7.8 | 0.00 | 0.00 | 0.00 | 40 | 1020.1 |
| 20260507052046 | 55 | 242 | 8.7 | 9.6 | 0.00 | 0.00 | 0.00 | 40 | 1020.0 |
| 20260507051547 | 55 | 196 | 6.1 | 7.8 | 0.00 | 0.00 | 0.00 | 40 | 1020.0 |
| 20260507051009 | 55 | 257 | 3.5 | 5.2 | 0.00 | 0.00 | 0.00 | 40 | 1020.1 |
| 20260507050546 | 55 | 182 | 1.7 | 4.3 | 0.00 | 0.00 | 0.00 | 40 | 1019.9 |
| 20260507050046 | 55 | 184 | 2.6 | 7.0 | 0.00 | 0.00 | 0.00 | 40 | 1019.8 |
| 20260507045509 | 56 | 211 | 4.3 | 10.4 | 0.00 | 0.00 | 0.00 | 40 | 1019.8 |
| 20260507045009 | 56 | 167 | 2.6 | 11.3 | 0.00 | 0.00 | 0.00 | 39 | 1020.1 |
| 20260507044547 | 56 | 269 | 5.2 | 12.2 | 0.00 | 0.00 | 0.00 | 40 | 1019.7 |
| 20260507044046 | 56 | 221 | 2.6 | 7.8 | 0.00 | 0.00 | 0.00 | 40 | 1019.8 |
| 20260507043547 | 56 | 238 | 4.3 | 8.7 | 0.00 | 0.00 | 0.00 | 39 | 1019.7 |
| 20260507043047 | 56 | 254 | 5.2 | 9.6 | 0.00 | 0.00 | 0.00 | 39 | 1019.7 |
| 20260507041046 | 56 | 213 | 4.3 | 9.6 | 0.00 | 0.00 | 0.00 | 39 | 1019.5 |
| 20260507040509 | 56 | 257 | 7.0 | 12.2 | 0.00 | 0.00 | 0.00 | 39 | 1019.4 |
| 20260507034546 | 57 | 217 | 4.3 | 13.9 | 0.00 | 0.00 | 0.00 | 38 | 1019.3 |
| 20260507034046 | 57 | 256 | 7.0 | 12.2 | 0.00 | 0.00 | 0.00 | 38 | 1019.4 |
| 20260507033547 | 57 | 254 | 5.2 | 12.2 | 0.00 | 0.00 | 0.00 | 38 | 1019.0 |
| 20260507033010 | 57 | 231 | 6.1 | 13.0 | 0.00 | 0.00 | 0.00 | 38 | 1019.3 |
| 20260507032546 | 57 | 239 | 5.2 | 15.6 | 0.00 | 0.00 | 0.00 | 37 | 1018.9 |
| 20260507032047 | 57 | 260 | 6.1 | 10.4 | 0.00 | 0.00 | 0.00 | 37 | 1018.8 |
| 20260507030547 | 58 | 258 | 2.6 | 6.1 | 0.00 | 0.00 | 0.00 | 37 | 1018.8 |
| 20260507030010 | 58 | 196 | 2.6 | 4.3 | 0.00 | 0.00 | 0.00 | 37 | 1018.8 |
| 20260507025546 | 59 | 286 | 4.3 | 5.2 | 0.00 | 0.00 | 0.00 | 36 | 1018.9 |
| 20260507025046 | 59 | 286 | 4.3 | 5.2 | 0.00 | 0.00 | 0.00 | 36 | 1018.7 |
| 20260507024547 | 59 | 286 | 4.3 | 5.2 | 0.00 | 0.00 | 0.00 | 36 | 1018.7 |
| 20260507024011 | 59 | 286 | 4.3 | 5.2 | 0.00 | 0.00 | 0.00 | 36 | 1018.5 |
| 20260507023546 | 59 | 286 | 4.3 | 5.2 | 0.00 | 0.00 | 0.00 | 36 | 1018.4 |
| 20260507023047 | 59 | 282 | 5.2 | 5.2 | 0.00 | 0.00 | 0.00 | 36 | 1018.2 |
| 20260507021009 | 60 | 262 | 13.9 | 14.8 | 0.00 | 0.00 | 0.00 | 34 | 1018.0 |
| 20260507020546 | 63 | 275 | 13.0 | 13.0 | 0.00 | 0.00 | 0.00 | 32 | 1018.0 |
| 20260507020047 | 63 | 275 | 13.0 | 13.0 | 0.00 | 0.00 | 0.00 | 32 | 1018.0 |
| 20260507014047 | 63 | 275 | 13.0 | 13.0 | 0.00 | 0.00 | 0.00 | 32 | 1018.0 |
| 20260507013509 | 63 | 257 | 10.4 | 14.8 | 0.00 | 0.00 | 0.00 | 31 | 1017.9 |
| 20260507013046 | 64 | 248 | 7.0 | 11.3 | 0.00 | 0.00 | 0.00 | 31 | 1017.7 |
| 20260507012546 | 64 | 226 | 7.8 | 13.9 | 0.00 | 0.00 | 0.00 | 30 | 1017.8 |
| 20260507012046 | 65 | 253 | 10.4 | 11.3 | 0.00 | 0.00 | 0.00 | 29 | 1017.9 |
| 20260507010009 | 66 | 237 | 10.4 | 14.8 | 0.00 | 0.00 | 0.00 | 29 | 1017.7 |
| 20260507005546 | 66 | 272 | 12.2 | 13.9 | 0.00 | 0.00 | 0.00 | 29 | 1017.7 |
| 20260507005047 | 67 | 218 | 9.6 | 14.8 | 0.00 | 0.00 | 0.00 | 28 | 1017.8 |
| 20260507004510 | 67 | 247 | 7.8 | 11.3 | 0.00 | 0.00 | 0.00 | 28 | 1017.8 |
| 20260507004009 | 67 | 250 | 4.3 | 8.7 | 0.00 | 0.00 | 0.00 | 28 | 1017.8 |
| 20260507003547 | 66 | 193 | 6.1 | 13.0 | 0.00 | 0.00 | 0.00 | 29 | 1017.7 |
| 20260507003009 | 68 | 281 | 4.3 | 11.3 | 0.00 | 0.00 | 0.00 | 27 | 1017.7 |
| 20260507002547 | 67 | 214 | 7.8 | 11.3 | 0.00 | 0.00 | 0.00 | 27 | 1017.8 |
| 20260507002047 | 67 | 265 | 6.1 | 13.0 | 0.00 | 0.00 | 0.00 | 28 | 1017.5 |
| 20260507000546 | 68 | 217 | 6.1 | 10.4 | 0.00 | 0.00 | 0.00 | 27 | 1017.6 |
| 20260507000046 | 68 | 250 | 6.1 | 9.6 | 0.00 | 0.00 | 0.00 | 28 | 1017.5 |
| 20260506235547 | 67 | 218 | 8.7 | 14.8 | 0.00 | 0.00 | 0.00 | 28 | 1017.6 |
| 20260506233546 | 67 | 212 | 11.3 | 16.5 | 0.00 | 0.00 | 0.00 | 27 | 1017.6 |
| 20260506233046 | 67 | 249 | 5.2 | 12.2 | 0.00 | 0.00 | 0.00 | 27 | 1017.6 |
| 20260506232547 | 68 | 198 | 4.3 | 11.3 | 0.00 | 0.00 | 0.00 | 27 | 1017.7 |
| 20260506232009 | 68 | 262 | 1.7 | 8.7 | 0.00 | 0.00 | 0.00 | 27 | 1017.8 |
| 20260506231546 | 70 | 230 | 4.3 | 7.0 | 0.00 | 0.00 | 0.00 | 25 | 1017.6 |
| 20260506231047 | 67 | 250 | 6.1 | 9.6 | 0.00 | 0.00 | 0.00 | 26 | 1017.7 |
| 20260506230510 | 67 | 176 | 5.2 | 8.7 | 0.00 | 0.00 | 0.00 | 27 | 1017.5 |
| 20260506230010 | 67 | 221 | 4.3 | 4.3 | 0.00 | 0.00 | 0.00 | 26 | 1017.5 |
| 20260506225547 | 65 | 103 | 2.6 | 7.0 | 0.00 | 0.00 | 0.00 | 27 | 1017.6 |
| 20260506225009 | 65 | 289 | 5.2 | 11.3 | 0.00 | 0.00 | 0.00 | 27 | 1017.6 |
| 20260506224546 | 66 | 261 | 13.0 | 13.9 | 0.00 | 0.00 | 0.00 | 26 | 1017.7 |
| 20260506224047 | 67 | 188 | 5.2 | 7.8 | 0.00 | 0.00 | 0.00 | 26 | 1017.6 |
| 20260506222046 | 67 | 295 | 9.6 | 13.0 | 0.00 | 0.00 | 0.00 | 26 | 1017.9 |
| 20260506221509 | 67 | 310 | 2.6 | 7.0 | 0.00 | 0.00 | 0.00 | 26 | 1017.9 |
| 20260506221009 | 67 | 84 | 2.6 | 4.3 | 0.00 | 0.00 | 0.00 | 26 | 1018.0 |
| 20260506220546 | 66 | 31 | 1.7 | 3.5 | 0.00 | 0.00 | 0.00 | 26 | 1018.0 |
| 20260506220047 | 68 | 70 | 5.2 | 6.1 | 0.00 | 0.00 | 0.00 | 24 | 1018.0 |
| 20260506215547 | 66 | 50 | 1.7 | 7.0 | 0.00 | 0.00 | 0.00 | 26 | 1018.0 |
| 20260506215047 | 67 | 89 | 2.6 | 5.2 | 0.00 | 0.00 | 0.00 | 25 | 1018.0 |
| 20260506214547 | 66 | 334 | 5.2 | 12.2 | 0.00 | 0.00 | 0.00 | 26 | 1018.1 |
| 20260506214009 | 68 | 358 | 7.0 | 7.8 | 0.00 | 0.00 | 0.00 | 24 | 1018.2 |
| 20260506213546 | 69 | 14 | 6.1 | 13.0 | 0.00 | 0.00 | 0.00 | 24 | 1018.2 |
| 20260506213047 | 68 | 10 | 7.0 | 14.8 | 0.00 | 0.00 | 0.00 | 24 | 1018.4 |
| 20260506212509 | 68 | 279 | 4.3 | 7.8 | 0.00 | 0.00 | 0.00 | 25 | 1018.3 |
| 20260506212009 | 66 | 309 | 4.3 | 7.8 | 0.00 | 0.00 | 0.00 | 26 | 1018.2 |
| 20260506211547 | 66 | 92 | 2.6 | 6.1 | 0.00 | 0.00 | 0.00 | 25 | 1018.3 |
| 20260506211009 | 69 | 110 | 4.3 | 7.8 | 0.00 | 0.00 | 0.00 | 25 | 1018.4 |
| 20260506210547 | 68 | 86 | 1.7 | 9.6 | 0.00 | 0.00 | 0.00 | 25 | 1018.4 |
| 20260506210047 | 65 | 74 | 5.2 | 10.4 | 0.00 | 0.00 | 0.00 | 26 | 1018.6 |
| 20260506205547 | 67 | 61 | 6.1 | 11.3 | 0.00 | 0.00 | 0.00 | 25 | 1018.6 |
| 20260506205047 | 67 | 329 | 2.6 | 5.2 | 0.00 | 0.00 | 0.00 | 26 | 1018.6 |
| 20260506204547 | 67 | 2 | 2.6 | 8.7 | 0.00 | 0.00 | 0.00 | 26 | 1018.8 |
| 20260506204047 | 69 | 335 | 7.0 | 7.0 | 0.00 | 0.00 | 0.00 | 25 | 1018.6 |
| 20260506203547 | 67 | 3 | 6.1 | 6.1 | 0.00 | 0.00 | 0.00 | 25 | 1018.5 |
| 20260506203010 | 66 | 292 | 7.0 | 12.2 | 0.00 | 0.00 | 0.00 | 26 | 1018.7 |
| 20260506202546 | 65 | 140 | 2.6 | 7.0 | 0.00 | 0.00 | 0.00 | 27 | 1018.8 |
| 20260506202047 | 64 | 304 | 11.3 | 13.9 | 0.00 | 0.00 | 0.00 | 27 | 1018.6 |
| 20260506200010 | 65 | 339 | 6.1 | 10.4 | 0.00 | 0.00 | 0.00 | 27 | 1018.7 |
| 20260506195547 | 64 | 245 | 7.8 | 9.6 | 0.00 | 0.00 | 0.00 | 28 | 1018.8 |
| 20260506195047 | 63 | 305 | 10.4 | 13.9 | 0.00 | 0.00 | 0.00 | 28 | 1018.8 |
| 20260506194509 | 63 | 341 | 3.5 | 11.3 | 0.00 | 0.00 | 0.00 | 29 | 1018.9 |
| 20260506194010 | 64 | 34 | 5.2 | 13.9 | 0.00 | 0.00 | 0.00 | 28 | 1018.8 |
| 20260506193547 | 64 | 286 | 13.9 | 15.6 | 0.00 | 0.00 | 0.00 | 28 | 1018.9 |
| 20260506193009 | 64 | 26 | 4.3 | 10.4 | 0.00 | 0.00 | 0.00 | 28 | 1019.0 |
| 20260506192546 | 63 | 296 | 10.4 | 13.0 | 0.00 | 0.00 | 0.00 | 28 | 1018.9 |
| 20260506192047 | 63 | 49 | 6.1 | 10.4 | 0.00 | 0.00 | 0.00 | 28 | 1018.8 |
| 20260506191546 | 63 | 290 | 6.1 | 16.5 | 0.00 | 0.00 | 0.00 | 28 | 1018.7 |
| 20260506191009 | 65 | 8 | 11.3 | 13.0 | 0.00 | 0.00 | 0.00 | 27 | 1018.8 |
| 20260506190547 | 64 | 13 | 9.6 | 11.3 | 0.00 | 0.00 | 0.00 | 27 | 1018.8 |
| 20260506190047 | 63 | 28 | 4.3 | 9.6 | 0.00 | 0.00 | 0.00 | 27 | 1019.0 |
| 20260506185547 | 63 | 18 | 5.2 | 13.0 | 0.00 | 0.00 | 0.00 | 28 | 1019.2 |
| 20260506183546 | 62 | 313 | 12.2 | 14.8 | 0.00 | 0.00 | 0.00 | 29 | 1018.8 |